Simultaneous Nadir Overpasses (SNOs) Predictions

Prediction of SNOs between NOAA-15 and METOP-C Satellite Orbit:

Table of predicted SNOs for the next 14.0 days since TLE Epoch: 9/24/2019
Index Date (NOAA-15) Time (NOAA-15) Lat,Lon (NOAA-15) SZA (NOAA-15 ) Date (METOP-C) Time (METOP-C) Lat,Lon (METOP-C) SZA (METOP-C ) Distance(km) Time Diff (sec)
1 10/07/2019 23:13:47 -80.80, 46.49 91.64 10/07/2019 23:12:39 -80.75, 43.63 91.97 51.31 68
2 10/08/2019 00:04:20 80.85,-147.06 88.33 10/08/2019 00:03:13 80.86,-147.14 88.31 2.07 67
3 10/08/2019 00:54:53 -80.86, 20.04 91.67 10/08/2019 00:53:56 -80.84, 19.89 91.72 3.23 57
4 10/08/2019 01:45:23 80.85,-172.44 88.35 10/08/2019 01:44:35 80.85,-172.63 88.32 3.31 48




NCC Satellite Simultaneous Nadir Overpasses (SNOs) Prediction Service
